Location: Gallinara
(44.0333°N, 8.2333°E)
Time: 11:23:16
(UTC+00:00)

ADEOS - Pass Details

Date: 25 September 2020
Orbit: 792 x 794 km, 98.9° (Epoch: 24 October)

Event Time Altitude Azimuth Distance (km) Brightness Sun altitude
Rises 03:49:23 0° 16° (NNE) 3,303 7.2 -16.6°
Reaches altitude 10° 03:51:44 10° 19° (NNE) 2,369 6.5 -16.2°
Maximum altitude 03:56:57 71° 103° (ESE) 842 3.9 -15.3°
Drops below altitude 10° 04:02:08 10° 187° (S) 2,352 5.8 -14.4°
Sets 04:04:28 0° 190° (S) 3,277 6.5 -14.0°
